Home > Time Zones > World Clock > Weather > India > Ajmer > Past weeks

Flag for India Weather past 2 weeks in Ajmer, Rajasthan, India

Now
77 °F

Passing clouds.


Feels Like: 79 °F
Forecast: 75 / 93 °F
Wind: 5 mph from Northeast

Location: Jaipur / Sanganer


UV Index: 7 (High)

Visibility: 2 mi


Pressure: 29.92 "Hg

Humidity: 54%

Dew point: 59 °F

Location of AjmerLocation

Historic Weather in Ajmer

°F

Ajmer temperature yesterday

Maximum temperature yesterday: 88 °F (at 1:00 PM)
Minimum temperature yesterday: 72 °F (at 4:30 AM)
Average temperature yesterday: 80 °F

Past Weeks' High & Low Weather Summary

 TemperatureHumidityPressure
High100 °F (Apr 13, 2:00 PM)73% (Apr 18, 7:00 AM)29.98 "Hg (Apr 18, 7:00 AM)
Low70 °F (Apr 4, 5:00 AM)6% (Apr 12, 2:00 PM)29.53 "Hg (Apr 17, 2:00 PM)
Average85 °F28%29.86 "Hg
* Reported Apr 3 11:00 PM — Apr 18 11:00 PM, Ajmer, Weather by CustomWeather, © 2014

Note: Actual official high and low records may vary slightly from our data, if they occured in-between our weather recording intervals... More about our weather records

Advertising

Historic Weather Conditions — Data for Previous 24 hours

 ConditionsComfort  
Time TempWeatherWind HumidityBarometerVisibility
11:00 PM
Apr 18
79 °FPassing clouds.No wind51%29.92 "Hg2 mi
10:00 PM79 °FPassing clouds.No wind51%29.92 "Hg2 mi
9:30 PM79 °FPassing clouds.No wind48%29.89 "Hg2 mi
9:00 PM79 °FPassing clouds.2 mph48%29.89 "Hg2 mi
8:30 PM81 °FPassing clouds.No wind45%29.89 "Hg2 mi
7:00 PM82 °FScattered clouds.1 mph40%29.86 "Hg2 mi
6:00 PM84 °FScattered clouds.1 mph35%29.86 "Hg2 mi
5:00 PM86 °FScattered clouds.9 mph31%29.89 "Hg2 mi
4:00 PM88 °FScattered clouds.7 mph29%29.89 "Hg2 mi
3:00 PM86 °FScattered clouds.7 mph35%29.89 "Hg2 mi
2:00 PM86 °FScattered clouds.7 mph38%29.89 "Hg2 mi
1:00 PM88 °FScattered clouds.6 mph38%29.95 "Hg2 mi
12:00 PM82 °FScattered clouds.5 mph48%29.95 "Hg2 mi
11:00 AM82 °FScattered clouds.8 mph51%29.95 "Hg2 mi
10:00 AM79 °FScattered clouds.13 mph58%29.92 "Hg2 mi
9:00 AM75 °FScattered clouds.12 mph61%29.92 "Hg2 mi
7:00 AM72 °FScattered clouds.8 mph73%29.86 "Hg1 mi
6:00 AM72 °FPassing clouds.12 mph69%29.83 "Hg1 mi
5:00 AM72 °FPassing clouds.13 mph69%29.83 "Hg1 mi
4:30 AM72 °FThunderstorms. Passing clouds.14 mph69%29.83 "Hg1 mi
4:00 AM73 °FThunderstorms. Passing clouds.17 mph65%29.83 "Hg1 mi
2:00 AM79 °FPassing clouds.8 mph48%29.77 "Hg1 mi
1:00 AM79 °FPassing clouds.9 mph48%29.80 "Hg1 mi
12:00 AM81 °FPassing clouds.10 mph45%29.77 "Hg1 mi
Weather by CustomWeather, © 2014

See weather overview